Location: Middlebury
(44.0133°N, 73.1813°W)
Time: 14:09:20
(UTC-05:00)

ISS - Pass Details

Date: 20 January 2020
Orbit: 416 x 422 km, 51.6° (Epoch: 20 February)

Event Time Altitude Azimuth Distance (km) Brightness Sun altitude
Rises 18:29:17 0° 217° (SW) 2,364 0.8 -18.3°
Reaches altitude 10° 18:31:28 10° 209° (SSW) 1,502 -0.4 -18.7°
Enters shadow 18:34:16 36° 156° (SSE) 684 -2.9 -19.2°
